Dayton, IN (47941)

5:17 AM EST on February 14, 2016 (GMT -0500)
Rural Dayton East | | Change Station
CLOSE
Current Station
Personal Weather Station
Location: Lafayette, IN
Elevation: 682 ft
Nearby Weather Stations
Active Advisory: Winter Weather Advisory

Elev 682 ft 40.37 °N, 86.73 °W | Updated 4 minutes ago

Mostly Cloudy
Mostly Cloudy
13.3 °F
Feels Like 6 °F
N
4.7
Wind Variable Wind from East

Today
High -- | Low -- °F
--% Chance of Precip.
Yesterday
High -- | Low -- °F
Precip. -- in
Pressure 30.47 in
Visibility 10.0 miles
Clouds Overcast 10000 ft
Windchill 6 °F
Dew Point 4 °F
Humidity 65%
Rainfall 0.00 in
Snow Depth Not available.
7:42 AM 6:20 PM
Waxing Crescent, 40% visible
METAR KLAF 140954Z AUTO 10009KT 10SM OVC100 M11/M17 A3043 RMK AO2 SLP316 T11061167
Pressure 30.47 in
Visibility 10.0 miles
Clouds Overcast 10000 ft
Windchill 6 °F
Dew Point 4 °F
Humidity 65%
Rainfall 0.00 in
Snow Depth Not available.
7:42 AM 6:20 PM
Waxing Crescent, 40% visible
METAR KLAF 140954Z AUTO 10009KT 10SM OVC100 M11/M17 A3043 RMK AO2 SLP316 T11061167

10-Day Weather Forecast

Almanac

Astronomy

Feb. 14, 2016 Rise Set
Actual Time
Civil Twilight
Nautical Twilight
Astronomical Twilight
Moon
Length of Visible Light
Length of Day
Tomorrow will be .
, % of the Moon is Illuminated

Today's Extremes

State Highs State Lows

Community

WunderPhotos

Upload Photos

1,892,765 photos uploaded!

WunderBlog® & News

Nearby

Air Quality

  Air Quality AQ Index Pollutant
Not available.

Snow Depth

Station Depth Elevation

Earthquake Activity

City Distance Mag. Time & Date
Minimum magnitude displayed is 2.5.

Coastal Water Temperatures

Place Temperature

Stations

Nearby Weather Stations

Station Location Temp. Windchill Dew Point Humidity Wind Precip. Elev Updated Type
                   

Watches & Warnings

Winter Weather Advisory
Issued: 3:30 AM EST Feb. 14, 2016 – National Weather Service

... Winter Weather Advisory remains in effect from 8 am this
morning to midnight EST tonight...

* timing... snow developing by mid morning Sunday and continuing
the rest of the day and gradually diminishing Sunday night.

* Main impact... snow covered roads and poor travel conditions.
Snow accumulations of up to three inches are possible.

Precautionary/preparedness actions...

A Winter Weather Advisory for snow means that periods of snow
will cause primarily travel difficulties. Be prepared for snow
covered roads and limited visibilities... and use caution while
driving.